Satellite: NOAA-12 Catalog number: 21263 Epoch time: 13101.44632207 Element set: 784 Inclination: 098.7022 deg RA of node: 127.3451 deg Eccentricity: 0.0014555 Arg of perigee: 057.9916 deg Mean anomaly: 070.0969 deg Mean motion: 14.25555432 rev/day Decay rate: 4.9e-07 rev/day^2 Epoch rev: 13904 Checksum: 286
Satellite: MET-3/5 Catalog number: 21655 Epoch time: 13101.47444859 Element set: 663 Inclination: 082.5537 deg RA of node: 301.4367 deg Eccentricity: 0.0012224 Arg of perigee: 298.0965 deg Mean anomaly: 061.8922 deg Mean motion: 13.17049515 rev/day Decay rate: -3.26e-06 rev/day^2 Epoch rev: 4115 Checksum: 294
Satellite: MET-2/21 Catalog number: 22782 Epoch time: 13101.16064122 Element set: 710 Inclination: 082.5490 deg RA of node: 156.1037 deg Eccentricity: 0.0022834 Arg of perigee: 040.8502 deg Mean anomaly: 011.0010 deg Mean motion: 13.83702139 rev/day Decay rate: -3.0e-08 rev/day^2 Epoch rev: 99037 Checksum: 235
Satellite: OKEAN-4 Catalog number: 23317 Epoch time: 13100.84027778 Element set: 188 Inclination: 082.5364 deg RA of node: 112.8233 deg Eccentricity: 0.0022906 Arg of perigee: 090.2120 deg Mean anomaly: 257.8927 deg Mean motion: 14.84335492 rev/day Decay rate: 1.985e-05 rev/day^2 Epoch rev: 99895 Checksum: 321
Satellite: NOAA-14 Catalog number: 23455 Epoch time: 13101.34118615 Element set: 269 Inclination: 098.8030 deg RA of node: 186.7893 deg Eccentricity: 0.0009750 Arg of perigee: 182.0620 deg Mean anomaly: 244.0207 deg Mean motion: 14.13900888 rev/day Decay rate: 3.0e-07 rev/day^2 Epoch rev: 94292 Checksum: 287
Satellite: NOAA-15 Catalog number: 25338 Epoch time: 13101.60316789 Element set: 689 Inclination: 098.7217 deg RA of node: 092.1840 deg Eccentricity: 0.0009737 Arg of perigee: 326.2121 deg Mean anomaly: 142.5202 deg Mean motion: 14.25198109 rev/day Decay rate: 2.74e-06 rev/day^2 Epoch rev: 77535 Checksum: 303
Satellite: RESURS Catalog number: 25394 Epoch time: 13101.50002403 Element set: 348 Inclination: 098.3564 deg RA of node: 080.5567 deg Eccentricity: 0.0002611 Arg of perigee: 093.9619 deg Mean anomaly: 052.8057 deg Mean motion: 14.24325839 rev/day Decay rate: 5.9e-07 rev/day^2 Epoch rev: 76686 Checksum: 296
Satellite: FENGYUN1 Catalog number: 25730 Epoch time: 13101.84570076 Element set: 848 Inclination: 098.8749 deg RA of node: 062.1935 deg Eccentricity: 0.0022770 Arg of perigee: 232.0885 deg Mean anomaly: 161.1005 deg Mean motion: 14.10361704 rev/day Decay rate: 2.092e-05 rev/day^2 Epoch rev: 71669 Checksum: 289
Satellite: OKEAN-0 Catalog number: 25860 Epoch time: 13101.13770198 Element set: 915 Inclination: 097.9838 deg RA of node: 064.5157 deg Eccentricity: 0.0001604 Arg of perigee: 078.7069 deg Mean anomaly: 341.6747 deg Mean motion: 14.74534450 rev/day Decay rate: 8.64e-06 rev/day^2 Epoch rev: 73847 Checksum: 324
Satellite: NOAA-16 Catalog number: 26536 Epoch time: 13101.35828492 Element set: 166 Inclination: 099.0493 deg RA of node: 153.4398 deg Eccentricity: 0.0009694 Arg of perigee: 327.4503 deg Mean anomaly: 161.4435 deg Mean motion: 14.12857588 rev/day Decay rate: 2.71e-06 rev/day^2 Epoch rev: 64713 Checksum: 322
Satellite: NOAA-17 Catalog number: 27453 Epoch time: 13101.57393572 Element set: 89 Inclination: 098.3154 deg RA of node: 119.1794 deg Eccentricity: 0.0011370 Arg of perigee: 007.5011 deg Mean anomaly: 152.3047 deg Mean motion: 14.24552617 rev/day Decay rate: 2.22e-06 rev/day^2 Epoch rev: 56123 Checksum: 273
Satellite: NOAA-18 Catalog number: 28654 Epoch time: 13101.54395022 Element set: 572 Inclination: 099.0939 deg RA of node: 068.8264 deg Eccentricity: 0.0014882 Arg of perigee: 040.0171 deg Mean anomaly: 093.8939 deg Mean motion: 14.11794171 rev/day Decay rate: 4.09e-06 rev/day^2 Epoch rev: 40665 Checksum: 314
Satellite: NOAA-19 Catalog number: 33591 Epoch time: 13101.53352700 Element set: 758 Inclination: 098.8993 deg RA of node: 044.1408 deg Eccentricity: 0.0013014 Arg of perigee: 257.0089 deg Mean anomaly: 163.1990 deg Mean motion: 14.11481352 rev/day Decay rate: 3.91e-06 rev/day^2 Epoch rev: 21509 Checksum: 288
/EX SB KEPS @ AMSAT $ORB13101.M Orbital Elements 13101.MISC
HR AMSAT ORBITAL ELEMENTS FOR MANNED AND MISCELLANEOUS SATELLITES FROM WA5QGD FORT WORTH,TX April 11, 2013 BID: ORB13101.M TO ALL RADIO AMATEURS BT
Satellite: HUBBLE Catalog number: 20580 Epoch time: 13100.82303510 Element set: 214 Inclination: 028.4709 deg RA of node: 354.3875 deg Eccentricity: 0.0003182 Arg of perigee: 356.5929 deg Mean anomaly: 081.5880 deg Mean motion: 15.03449688 rev/day Decay rate: 3.733e-05 rev/day^2 Epoch rev: 5954 Checksum: 292
Satellite: ISS Catalog number: 25544 Epoch time: 13101.83411699 Element set: 594 Inclination: 051.6458 deg RA of node: 077.6476 deg Eccentricity: 0.0010842 Arg of perigee: 131.1102 deg Mean anomaly: 305.5272 deg Mean motion: 15.52197529 rev/day Decay rate: 1.5094e-04 rev/day^2 Epoch rev: 82440 Checksum: 289
Satellite: CO-58 Catalog number: 28895 Epoch time: 13100.63168506 Element set: 448 Inclination: 097.8783 deg RA of node: 319.2283 deg Eccentricity: 0.0016315 Arg of perigee: 296.2676 deg Mean anomaly: 096.9199 deg Mean motion: 14.61027265 rev/day Decay rate: 1.060e-05 rev/day^2 Epoch rev: 39708 Checksum: 345
Satellite: FALCON Catalog number: 30776 Epoch time: 13100.86594164 Element set: 588 Inclination: 035.4307 deg RA of node: 255.2215 deg Eccentricity: 0.0000824 Arg of perigee: 080.2918 deg Mean anomaly: 075.8081 deg Mean motion: 15.10038775 rev/day Decay rate: 8.670e-05 rev/day^2 Epoch rev: 33523 Checksum: 289
Satellite: MAST Catalog number: 31126 Epoch time: 13101.57281833 Element set: 726 Inclination: 097.8799 deg RA of node: 101.3076 deg Eccentricity: 0.0091947 Arg of perigee: 260.0374 deg Mean anomaly: 248.4807 deg Mean motion: 14.54500871 rev/day Decay rate: 6.62e-06 rev/day^2 Epoch rev: 31763 Checksum: 301
Satellite: CAPE1 Catalog number: 31130 Epoch time: 13101.40606053 Element set: 736 Inclination: 097.8963 deg RA of node: 097.4795 deg Eccentricity: 0.0099283 Arg of perigee: 276.0749 deg Mean anomaly: 082.9142 deg Mean motion: 14.53395316 rev/day Decay rate: 9.11e-06 rev/day^2 Epoch rev: 31707 Checksum: 308
Satellite: COMPASS Catalog number: 32787 Epoch time: 13101.18298337 Element set: 592 Inclination: 097.7581 deg RA of node: 161.4743 deg Eccentricity: 0.0015690 Arg of perigee: 159.3527 deg Mean anomaly: 234.4021 deg Mean motion: 14.85196188 rev/day Decay rate: 3.219e-05 rev/day^2 Epoch rev: 26802 Checksum: 314
Satellite: AAUSAT2 Catalog number: 32788 Epoch time: 13101.14814168 Element set: 579 Inclination: 097.7592 deg RA of node: 162.0170 deg Eccentricity: 0.0015260 Arg of perigee: 159.4897 deg Mean anomaly: 253.5308 deg Mean motion: 14.85627299 rev/day Decay rate: 3.780e-05 rev/day^2 Epoch rev: 26805 Checksum: 329
Satellite: DO-64 Catalog number: 32789 Epoch time: 13101.21094788 Element set: 607 Inclination: 097.7737 deg RA of node: 165.4693 deg Eccentricity: 0.0014951 Arg of perigee: 153.4894 deg Mean anomaly: 239.7474 deg Mean motion: 14.87995165 rev/day Decay rate: 6.366e-05 rev/day^2 Epoch rev: 26816 Checksum: 369
Satellite: CO-66 Catalog number: 32791 Epoch time: 13101.73733247 Element set: 577 Inclination: 097.7587 deg RA of node: 161.4609 deg Eccentricity: 0.0016151 Arg of perigee: 158.8705 deg Mean anomaly: 348.6116 deg Mean motion: 14.84397943 rev/day Decay rate: 2.335e-05 rev/day^2 Epoch rev: 26801 Checksum: 333
Satellite: RS-30 Catalog number: 32953 Epoch time: 13101.49744182 Element set: 757 Inclination: 082.4981 deg RA of node: 109.6652 deg Eccentricity: 0.0019447 Arg of perigee: 022.5511 deg Mean anomaly: 337.6419 deg Mean motion: 12.43032776 rev/day Decay rate: 1.0e-07 rev/day^2 Epoch rev: 22162 Checksum: 284
Satellite: METEOR-M Catalog number: 35865 Epoch time: 13101.65680989 Element set: 356 Inclination: 098.6095 deg RA of node: 155.6917 deg Eccentricity: 0.0001639 Arg of perigee: 279.8050 deg Mean anomaly: 080.2946 deg Mean motion: 14.21882750 rev/day Decay rate: -8.0e-08 rev/day^2 Epoch rev: 18501 Checksum: 322
Satellite: RS-38 Catalog number: 35869 Epoch time: 13101.70137082 Element set: 331 Inclination: 098.6037 deg RA of node: 155.6682 deg Eccentricity: 0.0003824 Arg of perigee: 272.9851 deg Mean anomaly: 087.0890 deg Mean motion: 14.22120028 rev/day Decay rate: 2.6e-07 rev/day^2 Epoch rev: 18504 Checksum: 291
Satellite: JUGNU Catalog number: 37839 Epoch time: 13100.81831212 Element set: 364 Inclination: 019.9630 deg RA of node: 354.9796 deg Eccentricity: 0.0018983 Arg of perigee: 261.1815 deg Mean anomaly: 163.1916 deg Mean motion: 14.12139882 rev/day Decay rate: 5.28e-06 rev/day^2 Epoch rev: 7736 Checksum: 311
Satellite: SRMSAT Catalog number: 37841 Epoch time: 13101.84577626 Element set: 367 Inclination: 019.9733 deg RA of node: 359.4975 deg Eccentricity: 0.0011827 Arg of perigee: 228.1945 deg Mean anomaly: 198.8143 deg Mean motion: 14.10213244 rev/day Decay rate: 4.59e-06 rev/day^2 Epoch rev: 7739 Checksum: 323
Satellite: RAX-2 Catalog number: 37853 Epoch time: 13101.52058637 Element set: 472 Inclination: 101.7170 deg RA of node: 284.2941 deg Eccentricity: 0.0237788 Arg of perigee: 218.4603 deg Mean anomaly: 175.2696 deg Mean motion: 14.82811322 rev/day Decay rate: 1.1391e-04 rev/day^2 Epoch rev: 7856 Checksum: 306
Satellite: AUBIESAT Catalog number: 37854 Epoch time: 13100.49687009 Element set: 468 Inclination: 101.7202 deg RA of node: 283.5277 deg Eccentricity: 0.0238082 Arg of perigee: 220.2059 deg Mean anomaly: 173.8198 deg Mean motion: 14.83421118 rev/day Decay rate: 1.1268e-04 rev/day^2 Epoch rev: 7842 Checksum: 299
